Flag for Pakistan Weather past 2 weeks in Islamabad, Pakistan

Now
82 °F

Thundershowers. Passing clouds.


Feels Like: 88 °F
Forecast: 77 / 94 °F
Wind: 9 mph from East

Location: Islamabad Airport

Current Time: Jul 30, 2015 at 3:28:16 AM

Latest Report: Jul 30, 2015 at 3:00 AM


Visibility: 2 mi

Pressure: 29.56 "Hg (27.76 "Hg at 554m altitude)

Humidity: 74%

Dew point: 73 °F

Location of IslamabadLocation

Historic Weather in Islamabad — Graph

°F

Islamabad temperature yesterday

Maximum temperature yesterday: 95 °F (at 3:00 PM)
Minimum temperature yesterday: 79 °F (at 4:00 AM)
Average temperature yesterday: 88 °F

Past Weeks' High & Low Weather Summary

 TemperatureHumidityPressure
High100 °F (Jul 15, 5:00 PM)100% (Jul 17, 4:00 AM)30.01 "Hg (Jul 17, 4:00 AM)
Low68 °F (Jul 23, 1:00 PM)45% (Jul 15, 5:00 PM)29.33 "Hg (Jul 16, 5:00 PM)
Average84 °F75%29.61 "Hg
* Reported Jul 15 2:00 AM — Jul 30 2:00 AM, Islamabad, Weather by CustomWeather, © 2015

Note: Actual official high and low records may vary slightly from our data, if they occured in-between our weather recording intervals... More about our weather records

Advertising

Islamabad weather history for previous 24 hours

 ConditionsComfort  
Time TempWeatherWind HumidityBarometerVisibility
2:00 AM
Thu, Jul 30
82 °FThundershowers. Passing clouds.9 mph74%29.56 "Hg2 mi
1:00 AM82 °FThundershowers. Passing clouds.9 mph74%29.59 "Hg2 mi
12:00 AM84 °FThundershowers. Passing clouds.12 mph70%29.59 "Hg2 mi
11:00 PM
Wed, Jul 29
84 °FThundershowers. Passing clouds.12 mph70%29.59 "Hg3 mi
10:00 PM86 °FPassing clouds.12 mph70%29.56 "Hg3 mi
9:00 PM88 °FPassing clouds.12 mph66%29.56 "Hg3 mi
8:00 PM90 °FPassing clouds.7 mph67%29.53 "Hg3 mi
7:00 PM90 °FHaze.7 mph67%29.50 "Hg3 mi
6:00 PM91 °FScattered clouds.7 mph63%29.50 "Hg3 mi
5:00 PM93 °FScattered clouds.5 mph59%29.50 "Hg3 mi
4:00 PM95 °FScattered clouds.12 mph56%29.50 "Hg3 mi
3:00 PM95 °FScattered clouds.12 mph56%29.53 "Hg3 mi
2:00 PM93 °FScattered clouds.12 mph59%29.56 "Hg3 mi
1:00 PM93 °FScattered clouds.12 mph59%29.56 "Hg3 mi
12:00 PM91 °FPassing clouds.12 mph59%29.59 "Hg3 mi
11:00 AM90 °FPassing clouds.14 mph67%29.59 "Hg3 mi
9:00 AM88 °FPassing clouds.7 mph66%29.59 "Hg3 mi
8:00 AM86 °FPassing clouds.7 mph70%29.59 "Hg3 mi
4:00 AM79 °FPassing clouds.9 mph84%29.62 "Hg4 mi
3:00 AM81 °FPassing clouds.9 mph84%29.62 "Hg4 mi
Weather by CustomWeather, © 2015

See weather overviewHow to use our weather pages